| time (UTC) | temp F | wind direction | speed MPH | gust MPH | rain 1hr in | rain 24hr in | rain mn in | humidity % | barometer mb |
| 20260506001518 | 67 | 98 | 2.0 | 9.0 | 0.00 | 0.00 | 0.00 | 89 | 1010.7 |
| 20260506000018 | 67 | 91 | 3.0 | 9.0 | 0.00 | 0.00 | 0.00 | 88 | 1010.9 |
| 20260505234516 | 67 | 90 | 4.0 | 8.0 | 0.00 | 0.00 | 0.00 | 88 | 1011.0 |
| 20260505233017 | 68 | 81 | 3.0 | 7.0 | 0.00 | 0.00 | 0.00 | 87 | 1010.8 |
| 20260505231518 | 68 | 105 | 2.0 | 8.0 | 0.00 | 0.00 | 0.00 | 86 | 1010.8 |
| 20260505230023 | 69 | 81 | 4.0 | 10.0 | 0.00 | 0.00 | 0.00 | 86 | 1010.8 |
| 20260505224512 | 68 | 95 | 0.0 | 7.0 | 0.00 | 0.00 | 0.00 | 86 | 1010.5 |
| 20260505223015 | 68 | 144 | 2.0 | 9.0 | 0.00 | 0.00 | 0.00 | 86 | 1010.4 |
| 20260505221512 | 69 | 97 | 3.0 | 10.0 | 0.00 | 0.00 | 0.00 | 85 | 1010.3 |
| 20260505220010 | 69 | 79 | 5.0 | 10.0 | 0.00 | 0.00 | 0.00 | 85 | 1010.4 |
| 20260505214509 | 69 | 107 | 3.0 | 7.0 | 0.00 | 0.00 | 0.00 | 84 | 1010.4 |
| 20260505213009 | 70 | 112 | 1.0 | 6.0 | 0.00 | 0.00 | 0.00 | 84 | 1010.2 |
| 20260505211508 | 70 | 74 | 1.0 | 4.0 | 0.00 | 0.00 | 0.00 | 83 | 1010.1 |
| 20260505210007 | 71 | 105 | 0.0 | 5.0 | 0.00 | 0.00 | 0.00 | 82 | 1009.7 |
| 20260505204507 | 71 | 129 | 1.0 | 4.0 | 0.00 | 0.00 | 0.00 | 82 | 1009.7 |
| 20260505203006 | 71 | 125 | 0.0 | 4.0 | 0.00 | 0.00 | 0.00 | 81 | 1009.9 |
| 20260505201506 | 71 | 72 | 0.0 | 4.0 | 0.00 | 0.00 | 0.00 | 81 | 1009.9 |
| 20260505200005 | 71 | 136 | 1.0 | 4.0 | 0.00 | 0.00 | 0.00 | 81 | 1009.8 |
| 20260505194505 | 72 | 110 | 0.0 | 6.0 | 0.00 | 0.00 | 0.00 | 81 | 1010.0 |
| 20260505193003 | 72 | 71 | 0.0 | 4.0 | 0.00 | 0.00 | 0.00 | 81 | 1010.1 |
| 20260505191502 | 72 | 93 | 0.0 | 5.0 | 0.00 | 0.00 | 0.00 | 80 | 1010.1 |
| 20260505190001 | 72 | 125 | 1.0 | 4.0 | 0.00 | 0.00 | 0.00 | 79 | 1009.9 |
| 20260505184600 | 72 | 136 | 2.0 | 5.0 | 0.00 | 0.00 | 0.00 | 79 | 1010.2 |
| 20260505183059 | 73 | 81 | 0.0 | 3.0 | 0.00 | 0.00 | 0.00 | 79 | 1010.2 |
| 20260505181600 | 73 | 79 | 0.0 | 2.0 | 0.00 | 0.00 | 0.00 | 78 | 1010.4 |
| 20260505180059 | 73 | 193 | 0.0 | 1.0 | 0.00 | 0.00 | 0.00 | 78 | 1010.6 |
| 20260505174603 | 73 | 193 | 0.0 | 1.0 | 0.00 | 0.00 | 0.00 | 79 | 1010.5 |
| 20260505173058 | 73 | 188 | 1.0 | 2.0 | 0.00 | 0.00 | 0.00 | 79 | 1010.8 |
| 20260505171557 | 73 | 201 | 0.0 | 2.0 | 0.00 | 0.00 | 0.00 | 80 | 1010.6 |
| 20260505170054 | 73 | 70 | 0.0 | 2.0 | 0.00 | 0.00 | 0.00 | 78 | 1010.7 |
| 20260505164614 | 73 | 34 | 0.0 | 2.0 | 0.00 | 0.00 | 0.00 | 80 | 1010.8 |
| 20260505163058 | 71 | 320 | 0.0 | 6.0 | 0.00 | 0.00 | 0.00 | 82 | 1011.0 |
| 20260505161553 | 71 | 24 | 1.0 | 7.0 | 0.00 | 0.00 | 0.00 | 81 | 1011.1 |
| 20260505153046 | 72 | 33 | 0.0 | 8.0 | 0.00 | 0.00 | 0.00 | 78 | 1011.5 |
| 20260505151545 | 72 | 38 | 0.0 | 5.0 | 0.00 | 0.00 | 0.00 | 78 | 1011.5 |
| 20260505124516 | 63 | 41 | 0.0 | 3.0 | 0.00 | 0.00 | 0.00 | 84 | 1011.9 |
| 20260505123013 | 63 | 82 | 0.0 | 5.0 | 0.00 | 0.00 | 0.00 | 84 | 1011.7 |
| 20260505121512 | 62 | 45 | 0.0 | 4.0 | 0.00 | 0.00 | 0.00 | 84 | 1011.6 |
| 20260505120011 | 62 | 43 | 0.0 | 5.0 | 0.00 | 0.00 | 0.00 | 84 | 1011.5 |
| 20260505114509 | 62 | 29 | 1.0 | 7.0 | 0.00 | 0.00 | 0.00 | 84 | 1011.4 |
| 20260505113007 | 61 | 34 | 1.0 | 4.0 | 0.00 | 0.00 | 0.00 | 84 | 1011.1 |
| 20260505111600 | 61 | 76 | 0.0 | 0.0 | 0.00 | 0.00 | 0.00 | 84 | 1010.8 |
| 20260505110118 | 61 | 76 | 0.0 | 0.0 | 0.00 | 0.00 | 0.00 | 84 | 1010.9 |
| 20260505101555 | 60 | 76 | 0.0 | 0.0 | 0.00 | 0.00 | 0.00 | 84 | 1010.5 |
| 20260505100051 | 60 | 76 | 0.0 | 2.0 | 0.00 | 0.00 | 0.00 | 84 | 1010.2 |
| 20260505094549 | 60 | 10 | 0.0 | 0.0 | 0.00 | 0.00 | 0.00 | 84 | 1010.2 |
| 20260505093047 | 59 | 10 | 0.0 | 0.0 | 0.00 | 0.00 | 0.00 | 84 | 1010.1 |
| 20260505091544 | 59 | 10 | 0.0 | 0.0 | 0.00 | 0.00 | 0.00 | 83 | 1010.1 |
| 20260505090044 | 59 | 10 | 0.0 | 0.0 | 0.00 | 0.00 | 0.00 | 83 | 1010.0 |
| 20260505084542 | 59 | 10 | 0.0 | 0.0 | 0.00 | 0.00 | 0.00 | 83 | 1010.0 |
| 20260505083041 | 59 | 10 | 0.0 | 0.0 | 0.00 | 0.00 | 0.00 | 84 | 1009.9 |
| 20260505081545 | 58 | 10 | 0.0 | 0.0 | 0.00 | 0.00 | 0.00 | 84 | 1009.9 |
| 20260505080044 | 58 | 10 | 0.0 | 0.0 | 0.00 | 0.00 | 0.00 | 84 | 1009.8 |
| 20260505074539 | 57 | 10 | 0.0 | 0.0 | 0.00 | 0.00 | 0.00 | 85 | 1009.8 |
| 20260505073047 | 57 | 10 | 0.0 | 0.0 | 0.00 | 0.00 | 0.00 | 85 | 1009.5 |
| 20260505071550 | 57 | 10 | 0.0 | 0.0 | 0.00 | 0.00 | 0.00 | 85 | 1009.4 |
| 20260505070038 | 57 | 10 | 0.0 | 0.0 | 0.00 | 0.00 | 0.00 | 84 | 1009.4 |
| 20260505064534 | 57 | 10 | 0.0 | 0.0 | 0.00 | 0.00 | 0.00 | 83 | 1009.6 |
| 20260505063033 | 57 | 19 | 0.0 | 3.0 | 0.00 | 0.00 | 0.00 | 82 | 1009.8 |
| 20260505061533 | 57 | 321 | 0.0 | 1.0 | 0.00 | 0.00 | 0.00 | 82 | 1009.7 |
| 20260505060031 | 58 | 326 | 0.0 | 2.0 | 0.00 | 0.00 | 0.00 | 81 | 1009.7 |
| 20260505054548 | 58 | 299 | 0.0 | 2.0 | 0.00 | 0.00 | 0.00 | 81 | 1009.7 |
| 20260505053040 | 57 | 27 | 0.0 | 1.0 | 0.00 | 0.00 | 0.00 | 82 | 1009.9 |
| 20260505051536 | 57 | 34 | 0.0 | 0.0 | 0.00 | 0.00 | 0.00 | 81 | 1010.0 |
| 20260505041525 | 58 | 38 | 0.0 | 1.0 | 0.00 | 0.00 | 0.00 | 80 | 1009.9 |
| 20260505040034 | 58 | 38 | 0.0 | 1.0 | 0.00 | 0.00 | 0.00 | 79 | 1009.9 |
| 20260505034522 | 58 | 19 | 0.0 | 2.0 | 0.00 | 0.00 | 0.00 | 78 | 1009.8 |
| 20260505033027 | 59 | 38 | 0.0 | 1.0 | 0.00 | 0.00 | 0.00 | 77 | 1009.8 |
| 20260505031519 | 58 | 41 | 0.0 | 2.0 | 0.00 | 0.00 | 0.00 | 78 | 1009.6 |
| 20260505030024 | 59 | 41 | 0.0 | 1.0 | 0.00 | 0.00 | 0.00 | 77 | 1009.9 |
| 20260505024516 | 59 | 41 | 0.0 | 1.0 | 0.00 | 0.00 | 0.00 | 77 | 1010.0 |
| 20260505023019 | 59 | 41 | 0.0 | 2.0 | 0.00 | 0.00 | 0.00 | 76 | 1009.9 |
| 20260505021515 | 60 | 24 | 0.0 | 3.0 | 0.00 | 0.00 | 0.00 | 76 | 1009.9 |
| 20260505020017 | 60 | 45 | 0.0 | 2.0 | 0.00 | 0.00 | 0.00 | 76 | 1009.9 |
| 20260505014514 | 60 | 29 | 0.0 | 3.0 | 0.00 | 0.00 | 0.00 | 75 | 1009.7 |
| 20260505013014 | 60 | 41 | 0.0 | 1.0 | 0.00 | 0.00 | 0.00 | 76 | 1009.6 |
| 20260505011514 | 60 | 41 | 0.0 | 1.0 | 0.00 | 0.00 | 0.00 | 75 | 1009.5 |
| 20260505010012 | 61 | 41 | 0.0 | 2.0 | 0.00 | 0.00 | 0.00 | 74 | 1009.3 |
| 20260505004512 | 61 | 48 | 0.0 | 1.0 | 0.00 | 0.00 | 0.00 | 73 | 1009.2 |
| 20260505003012 | 61 | 50 | 0.0 | 2.0 | 0.00 | 0.00 | 0.00 | 73 | 1008.9 |